Wind_Speed
21 21 21 19 17 16 15 14 13 15 16 16 17 16 16 16 15 14 15 15 15 14 12 10 10 9 11 11 11 11 12 16 15 13 13 13 14 14 14 14 14 15 15 14 14 12 13 13 14 13 13 14 14 15 15 15 15 14 14 13 13 14 13 12 11 11 11 10 9 9 9 9 8 7 7 7 9 10 10 10 11 10 10 10 9
20 22 20 17 16 14 14 13 13 15 15 16 17 17 15 15 15 15 15 16 15 14 12 10 11 10 11 12 12 11 11 15 14 12 13 12 14 14 13 13 14 14 14 13 13 12 12 13 14 14 14 15 15 15 15 14 14 13 13 12 13 13 12 11 10 9 9 9 8 7 8 8 7 8 8 10 11 11 11 12 12 11 11 11 10
17 19 18 15 13 11 11 11 13 15 15 16 17 17 15 15 14 14 15 14 13 12 12 10 11 11 11 11 11 11 11 13 13 12 13 13 13 13 12 13 13 13 13 12 12 12 12 12 13 14 14 15 15 14 14 13 12 12 12 12 12 12 11 10 9 8 8 8 9 9 10 9 9 10 11 13 13 12 12 13 13 13 12 12 11
16 16 15 14 12 11 12 11 14 15 15 16 16 17 16 15 14 13 13 12 11 11 11 10 11 11 11 11 11 12 13 13 12 11 12 13 14 14 13 12 13 13 13 12 11 12 12 12 12 13 13 14 15 14 13 13 11 11 11 11 12 12 11 10 9 10 11 11 12 14 13 12 12 12 13 14 14 13 13 13 13 13 13 12 12
18 16 16 15 14 13 14 13 14 14 14 15 16 16 14 13 12 12 12 12 12 11 12 11 11 11 12 12 12 12 13 13 12 11 11 12 13 14 13 12 12 12 12 11 11 12 12 12 12 12 12 14 14 14 12 12 11 10 11 11 11 11 11 11 12 13 15 15 15 16 15 15 15 15 14 15 15 15 14 14 14 13 13 13 13
19 18 17 16 15 14 14 13 12 12 12 14 14 14 12 11 11 12 12 13 12 12 12 12 10 11 12 12 12 12 13 13 11 12 12 12 12 13 12 12 12 11 11 10 10 11 11 10 11 11 12 13 13 13 12 11 10 10 11 11 11 11 12 14 16 17 17 16 16 15 15 16 17 16 16 16 16 15 15 15 15 14 14 14 15
17 16 16 15 14 13 13 13 12 11 12 12 12 12 10 10 10 11 11 11 11 12 11 11 9 9 11 11 12 12 13 14 12 12 12 11 12 11 11 12 11 10 10 9 9 9 10 9 10 10 11 12 13 13 12 11 10 10 10 11 12 13 14 16 17 17 16 16 15 14 14 16 17 17 17 17 16 16 16 16 16 15 15 15 15
15 14 13 13 12 12 12 11 11 11 12 11 11 11 10 9 9 10 10 10 10 11 10 10 9 8 10 10 12 13 14 14 12 11 11 12 11 11 11 11 10 9 10 9 9 9 10 9 9 9 10 10 11 11 11 11 11 11 11 12 14 14 15 16 17 16 15 15 15 14 14 15 16 16 16 16 16 16 16 16 16 16 15 15 15
11 11 10 11 10 11 11 10 10 10 11 10 10 11 10 9 8 9 9 9 9 9 9 8 8 8 10 10 10 12 14 14 13 11 11 12 11 10 11 11 10 9 9 9 9 10 9 9 9 9 9 9 9 10 10 11 11 12 13 14 15 15 16 17 17 16 15 15 14 13 13 14 15 15 15 15 15 15 15 16 16 16 15 15 14
7 7 7 8 8 10 9 8 9 9 9 10 10 11 10 9 8 8 9 8 8 8 7 6 7 7 9 10 9 10 14 14 13 12 11 12 11 11 11 11 10 9 9 9 9 10 9 9 9 9 9 8 8 9 10 10 11 12 14 15 16 16 17 16 16 15 14 14 13 14 13 13 14 14 14 13 13 14 15 15 15 15 14 15 15
6 4 5 6 7 9 8 7 8 10 10 10 11 10 9 9 8 8 8 7 7 7 6 6 7 8 8 10 10 10 13 14 14 12 12 12 12 12 12 11 10 9 9 10 10 11 10 9 8 9 10 9 8 9 10 11 13 14 15 16 16 16 16 15 15 15 13 13 13 14 13 13 13 13 13 12 13 13 14 15 15 15 15 15 15
6 4 5 6 7 8 7 7 8 10 11 11 10 9 7 7 7 7 7 5 5 6 7 7 7 8 8 9 11 12 13 15 15 14 13 12 13 13 12 11 11 10 10 11 11 11 11 9 9 9 10 10 9 9 10 13 15 17 17 16 15 15 15 13 15 15 13 13 13 13 13 13 13 13 13 13 13 13 14 14 14 14 14 14 14
6 4 6 7 7 7 7 7 7 8 8 8 7 6 6 5 5 6 6 5 5 6 7 7 7 7 7 9 11 13 15 15 15 15 13 12 13 12 12 12 11 10 10 11 11 11 11 10 9 10 10 11 10 10 12 15 17 17 17 16 15 15 14 14 14 14 13 13 13 13 13 13 13 13 13 13 13 13 13 13 13 13 13 13 14
7 6 6 7 7 6 6 6 5 5 5 5 4 4 4 4 4 4 5 5 6 7 7 6 7 8 7 8 11 14 17 16 14 13 12 11 11 11 12 12 11 10 10 11 11 10 10 10 10 10 11 11 10 11 14 16 17 17 17 16 15 14 14 15 14 14 13 13 13 13 13 13 13 13 13 13 12 12 13 13 13 13 14 14 15
8 6 6 7 6 5 5 4 3 3 3 3 3 3 4 4 5 5 6 7 7 8 7 7 9 9 7 8 10 12 16 15 14 12 11 11 10 11 11 11 12 11 10 10 10 9 9 9 9 10 11 11 11 13 16 17 17 17 16 16 14 13 13 16 15 13 13 12 12 12 13 13 13 13 13 12 12 12 12 13 14 14 15 15 16
7 6 6 6 5 3 2 2 2 3 3 3 3 4 5 5 6 6 8 9 9 9 9 9 9 8 7 8 10 10 13 14 14 13 12 11 11 10 11 11 12 11 11 9 9 9 8 8 9 10 10 11 13 15 17 17 17 17 16 15 13 13 13 15 15 13 12 11 12 13 12 13 13 13 13 12 12 12 13 13 14 15 15 16 17
7 5 4 4 2 1 1 2 2 3 4 4 5 6 6 7 8 9 10 10 10 10 11 11 10 9 9 9 9 9 12 13 13 13 12 12 11 11 11 11 11 12 11 9 9 9 8 8 9 10 10 12 15 17 17 17 17 16 15 14 13 14 14 14 14 12 11 11 12 13 12 12 13 12 12 12 12 13 14 14 15 15 16 16 17
6 4 3 2 2 2 2 3 3 2 3 4 4 6 7 7 8 10 10 10 10 11 11 11 10 10 11 11 10 9 11 13 13 13 12 11 11 12 12 11 11 11 10 9 9 9 8 8 9 9 10 13 16 17 17 17 16 15 14 13 14 15 14 12 13 12 11 11 12 12 11 12 12 12 12 12 13 13 14 14 15 15 16 16 17
4 2 2 3 3 3 4 4 3 2 2 2 3 6 7 7 8 10 10 10 10 10 11 11 11 11 12 12 11 11 11 12 13 13 12 11 12 13 12 11 11 10 9 9 8 8 9 9 9 9 12 15 17 17 17 16 15 14 13 13 14 15 13 12 12 12 11 11 11 11 11 12 11 11 11 12 13 13 14 14 15 15 16 16 17
3 2 3 4 4 4 4 4 3 2 1 1 4 5 7 8 8 10 11 11 11 11 12 12 12 13 13 12 11 12 12 13 14 14 13 12 12 12 12 11 10 10 9 9 9 8 9 10 10 11 14 17 18 18 17 16 14 13 13 14 14 13 12 12 11 11 10 10 9 10 11 11 11 11 11 12 13 13 13 14 14 15 15 16 16
3 3 4 5 5 5 4 3 2 2 3 3 5 5 7 8 9 9 11 12 11 13 14 12 11 13 13 12 12 14 14 14 14 14 14 13 12 12 11 10 9 9 9 9 9 9 10 10 11 13 16 18 18 18 18 15 13 12 13 13 12 12 12 12 11 10 9 9 9 10 11 11 11 11 11 12 12 13 13 14 14 14 15 15 15
3 3 4 5 5 4 4 2 2 2 3 4 4 5 7 9 9 9 10 12 12 12 12 11 11 12 12 13 14 15 15 15 15 14 14 13 13 12 11 10 9 9 9 9 10 10 11 11 13 16 18 19 18 18 17 15 13 12 12 11 11 12 12 10 9 8 8 8 9 9 10 10 10 10 11 11 12 13 13 13 13 14 14 14 13
4 4 4 5 4 3 3 2 2 2 2 4 4 4 6 9 10 10 11 12 12 11 10 12 12 12 12 14 15 15 15 16 16 15 14 14 14 13 11 11 10 9 9 9 10 11 11 12 15 17 19 19 18 18 16 14 12 12 12 11 11 11 11 9 8 8 8 8 8 9 10 10 10 10 10 11 12 12 12 12 12 13 13 12 12
5 5 4 4 3 2 2 2 2 2 2 3 3 4 5 6 9 9 10 10 9 11 12 12 13 14 14 14 15 15 15 16 16 15 15 14 14 13 12 11 10 10 9 9 10 11 12 14 17 18 18 17 15 14 13 11 11 11 11 10 10 10 9 8 7 7 7 8 8 8 10 10 10 10 10 11 11 11 11 11 11 11 11 11 11
5 5 4 4 2 2 2 1 2 2 1 2 3 3 4 5 6 7 8 7 7 10 14 15 14 15 15 16 17 17 16 16 15 15 14 14 14 13 12 11 11 10 9 9 10 12 12 14 16 17 16 15 14 13 10 9 9 10 10 9 9 9 8 7 6 6 7 7 8 8 10 10 10 9 10 11 10 10 10 10 10 10 10 10 10
6 5 5 3 3 2 2 1 1 1 1 0 3 3 4 5 6 6 6 5 5 7 12 17 16 16 17 19 19 19 18 17 16 15 14 14 14 13 12 11 11 10 10 9 11 12 13 14 14 14 14 14 14 12 10 10 10 10 9 8 8 7 6 6 6 6 7 7 8 9 10 10 9 8 9 10 10 9 9 9 9 8 9 9 10
6 6 5 4 3 2 1 1 1 0 0 0 2 3 4 6 5 6 5 5 6 7 11 15 15 16 18 20 20 20 20 19 17 16 15 14 13 13 12 11 11 10 10 10 11 13 12 13 12 13 15 15 13 11 10 10 10 9 8 6 7 7 6 6 5 5 6 7 8 9 10 9 8 8 8 9 9 8 8 8 8 7 8 9 10
6 6 5 4 3 2 1 0 1 0 1 2 2 3 4 6 6 6 7 7 7 8 12 14 15 17 19 20 22 21 21 20 18 17 15 14 13 13 12 11 10 10 11 11 13 13 13 12 13 14 16 16 13 10 10 10 10 8 6 5 6 6 6 6 5 5 6 7 9 9 10 9 8 8 8 8 7 7 7 7 6 6 8 9 11
6 6 5 4 3 3 2 1 0 0 2 3 3 4 4 5 6 6 7 9 10 11 13 16 17 19 20 22 24 22 21 20 19 17 15 14 14 13 12 11 10 10 11 13 14 14 13 13 14 15 15 15 13 10 10 10 8 7 4 5 5 5 6 6 5 6 7 8 9 9 9 8 8 8 7 6 6 6 6 5 6 6 8 10 12
6 6 6 5 4 4 3 2 1 1 3 3 4 5 5 5 6 6 7 8 10 11 14 18 19 20 21 23 26 25 23 21 19 17 15 15 14 13 12 11 10 11 12 14 14 14 14 15 15 16 15 13 12 11 11 10 6 5 4 4 5 5 6 6 6 6 8 9 9 9 8 8 7 7 6 5 5 4 4 4 5 7 9 11 13
6 6 6 5 5 5 3 3 3 3 4 5 5 7 7 7 7 7 6 7 9 9 12 16 19 23 23 23 24 25 23 20 18 17 16 15 14 13 12 12 11 11 13 14 14 14 14 15 15 16 14 13 12 11 11 10 6 4 4 4 4 5 6 6 5 6 8 8 8 8 8 8 7 7 6 5 4 3 3 4 5 7 9 11 13
7 7 7 6 6 5 4 3 3 4 5 6 7 8 8 8 7 7 7 7 9 9 10 12 15 19 20 18 19 21 21 19 17 16 15 14 14 13 13 12 12 12 14 15 15 14 14 14 14 15 13 13 12 11 11 8 6 5 3 3 4 5 7 7 5 5 7 7 7 8 7 8 7 6 5 4 3 2 3 4 6 8 10 11 13
8 8 8 7 7 6 5 4 4 5 7 8 9 9 9 9 8 8 8 8 9 10 11 12 13 14 15 16 17 17 18 18 17 16 15 14 13 13 12 12 12 13 14 15 15 15 15 15 15 14 13 13 11 11 10 5 6 7 2 2 4 5 7 8 7 6 7 7 7 7 7 7 6 6 5 3 2 1 3 4 6 8 10 11 12
9 9 8 8 7 7 6 5 5 6 7 9 9 10 10 10 9 9 9 9 9 10 12 12 13 14 14 15 16 15 16 16 16 15 14 13 12 12 12 11 12 13 14 15 15 14 14 15 15 14 12 12 10 10 10 6 5 8 4 2 4 7 7 6 7 6 6 7 7 8 8 8 7 5 4 3 1 1 3 5 6 8 10 11 12
9 9 9 8 7 7 7 6 6 6 8 9 10 11 11 10 10 10 10 9 11 11 12 12 13 13 13 13 14 14 14 15 14 14 13 13 12 11 12 11 11 13 14 15 15 14 13 14 15 14 12 11 10 9 10 8 6 5 6 4 5 7 7 6 6 5 5 6 7 8 10 10 8 6 4 4 2 1 3 5 7 9 10 11 13
9 9 10 9 8 7 7 6 6 7 8 10 10 11 12 11 11 11 11 10 11 12 12 13 12 12 12 12 12 12 13 13 13 13 13 12 11 11 11 11 12 14 15 14 14 14 13 13 14 13 12 12 11 8 7 8 6 4 5 5 5 7 7 7 6 4 4 5 6 7 7 6 7 6 5 4 3 1 2 5 7 9 10 12 13
9 10 10 10 9 8 7 6 6 7 8 9 11 11 12 12 12 11 11 12 12 12 12 12 11 10 10 11 11 11 12 12 12 12 12 12 11 11 11 11 12 14 15 15 14 14 13 13 13 12 10 12 11 7 7 8 6 3 4 3 5 6 7 6 5 5 4 3 4 5 4 3 4 5 5 4 1 0 2 4 6 8 9 11 12
9 10 10 9 9 9 8 7 6 7 8 9 10 11 11 12 12 12 12 12 13 12 11 11 10 10 9 10 10 10 11 11 11 10 10 10 10 11 11 11 12 14 15 14 13 12 12 13 13 12 10 9 11 9 9 9 6 3 1 2 4 5 6 5 3 3 2 1 3 4 4 3 4 3 5 7 5 3 5 7 8 7 9 11 11
8 10 10 9 9 9 8 7 6 7 8 9 10 11 11 12 12 12 11 12 12 12 11 10 10 10 9 10 10 10 10 10 10 10 9 9 9 10 10 11 12 13 14 14 13 11 11 12 12 12 10 8 9 9 10 10 8 5 3 3 4 5 5 5 4 3 2 1 1 2 3 4 4 3 5 8 8 7 9 10 10 8 9 11 11
8 10 10 9 9 9 8 8 7 7 8 9 10 10 11 12 11 12 12 11 11 11 11 10 9 9 9 10 10 10 11 11 10 10 9 8 8 10 10 10 12 13 14 13 13 12 12 12 12 11 10 8 8 8 8 8 7 6 6 4 4 5 5 4 4 2 0 2 1 1 3 6 6 5 6 7 8 9 10 10 11 9 8 10 9
8 9 9 9 8 9 9 8 8 8 8 9 10 10 10 11 11 11 11 10 10 10 10 10 9 9 9 10 10 10 11 11 10 10 10 9 9 10 10 10 12 13 13 13 12 12 12 12 12 11 9 8 7 7 7 7 5 4 4 4 3 4 5 3 3 2 1 2 4 2 4 7 7 9 9 8 7 8 9 9 10 10 10 10 8
9 9 9 9 8 9 9 9 9 9 9 9 10 11 10 10 10 10 10 9 10 10 10 10 9 9 10 10 10 10 11 11 11 10 11 10 10 10 10 11 13 13 13 13 12 12 12 12 12 11 9 8 7 6 7 8 5 3 4 3 2 1 3 2 2 2 2 3 6 6 5 4 5 9 11 10 9 8 8 8 11 12 13 13 11
10 9 10 10 9 9 10 10 10 10 11 11 11 12 12 12 11 11 10 9 9 9 10 10 9 10 10 10 10 11 11 11 11 11 11 11 11 11 11 12 13 13 13 13 12 12 12 12 11 10 9 9 6 6 7 7 5 5 5 4 3 4 5 2 2 3 4 4 6 6 7 5 5 9 9 10 13 11 8 10 13 13 13 13 13
11 10 10 10 9 9 10 10 10 10 11 12 12 13 13 13 12 12 11 9 10 9 9 10 9 9 10 10 10 10 11 10 10 11 11 11 12 11 12 12 13 13 12 12 12 12 11 11 11 10 9 8 6 7 7 6 6 7 7 5 4 5 6 3 2 4 4 3 4 4 7 6 5 11 10 8 11 9 9 13 14 13 14 14 14
12 11 11 10 10 10 10 10 10 10 11 12 12 13 13 14 13 12 10 9 9 9 9 10 8 8 9 9 9 10 10 10 10 11 11 11 12 12 12 12 13 13 12 12 12 11 11 10 11 11 10 7 6 8 9 6 5 6 7 6 6 6 6 4 4 7 6 4 5 6 9 7 5 11 12 7 8 10 11 13 14 16 17 14 14
12 12 11 11 10 10 10 10 10 10 10 10 11 11 12 13 12 11 10 9 9 9 10 10 9 9 9 9 9 9 10 9 10 10 10 11 12 13 13 13 12 12 12 12 11 10 10 11 11 11 10 8 6 7 8 7 6 6 6 6 6 6 6 6 5 8 9 9 8 9 10 7 6 10 12 9 9 13 12 10 13 17 16 12 13
13 12 12 12 11 11 11 10 10 10 9 9 9 9 10 11 12 12 11 10 10 11 11 11 11 10 10 9 9 10 10 10 10 10 10 11 12 13 14 13 12 12 11 11 11 11 11 11 11 10 9 7 6 6 6 6 7 6 6 7 7 7 6 7 6 7 9 9 10 10 8 8 8 10 9 9 11 11 10 11 13 15 14 13 13
14 13 13 13 12 11 11 10 10 10 9 9 9 8 9 11 12 12 13 13 12 12 12 12 12 12 11 11 11 10 10 10 10 10 10 11 13 14 14 13 12 12 11 11 11 11 11 11 11 10 9 8 8 8 7 5 6 6 7 8 7 8 8 8 8 7 9 10 10 11 9 8 10 11 9 9 10 7 9 13 12 12 14 14 13
15 14 14 14 13 12 12 11 10 10 9 10 9 9 9 10 12 13 14 14 13 13 13 13 13 13 12 12 11 11 10 10 10 10 11 12 13 14 14 13 13 12 11 11 11 11 10 10 11 11 10 9 9 10 8 7 7 7 7 8 8 7 7 7 8 7 7 9 9 10 10 7 10 12 9 8 9 7 9 14 12 12 15 13 12
16 15 15 15 14 13 13 12 11 10 10 10 10 10 10 10 11 14 15 14 13 13 13 13 13 13 13 12 12 11 10 10 10 10 11 12 13 14 14 14 13 12 12 12 11 11 11 11 12 11 11 10 10 11 10 9 9 8 6 7 7 7 7 8 9 9 8 9 10 9 10 10 10 11 8 8 11 9 9 13 14 13 13 12 11
18 18 17 16 15 14 14 13 12 11 11 11 11 11 10 10 10 12 14 15 13 13 13 13 13 13 12 12 12 11 10 10 10 10 11 11 12 13 14 14 13 13 13 13 12 12 12 12 13 12 12 12 12 12 12 10 10 9 8 8 8 8 9 9 9 10 9 10 12 11 11 12 10 10 10 10 12 10 7 11 16 13 11 11 11
Wind_Direction
137 133 125 122 121 123 125 122 122 124 121 116 112 108 107 109 111 112 112 113 112 111 111 112 112 115 119 124 122 127 131 115 110 112 109 106 105 105 104 105 105 104 104 104 105 106 106 107 108 106 105 105 106 107 109 111 111 109 108 108 108 107 105 103 101 98 97 96 94 94 98 100 100 100 101 101 108 112 110 114 117 121 121 113 109
136 126 118 114 113 113 116 121 124 126 123 118 114 110 111 114 115 113 112 113 113 115 121 124 118 118 122 121 121 128 127 114 114 115 111 110 108 108 108 105 103 102 105 105 107 108 106 107 109 110 110 109 109 108 108 107 108 109 109 110 109 106 105 103 100 94 90 90 89 92 97 97 98 103 108 110 112 114 112 112 113 115 115 112 111
135 117 114 112 112 114 114 123 131 131 125 121 118 117 118 118 117 117 117 115 117 120 126 126 120 123 126 117 121 133 126 117 121 122 120 117 112 111 108 104 105 107 107 108 111 110 106 105 106 110 113 112 112 111 109 108 109 111 113 112 109 106 102 100 95 88 87 91 95 94 94 95 97 103 111 115 114 114 115 115 115 114 112 111 111
139 118 114 113 114 117 118 126 133 134 130 125 122 124 125 124 123 124 124 122 122 121 122 122 121 126 127 122 133 139 131 128 129 128 125 119 117 116 110 108 112 112 110 112 113 107 103 102 104 109 112 112 113 116 114 113 113 114 114 111 109 106 102 98 92 91 93 94 94 91 89 92 96 102 110 116 116 116 115 115 114 112 111 110 108
135 124 117 115 113 114 120 127 132 134 132 129 127 130 131 129 129 132 135 134 129 124 121 117 121 131 132 134 138 138 135 136 134 131 125 119 120 116 113 114 114 115 114 116 112 104 102 103 105 107 109 110 114 117 115 114 114 114 114 112 110 106 103 99 94 95 95 91 88 87 88 89 93 99 107 113 116 117 115 114 112 110 110 109 106
124 122 120 116 109 109 113 118 125 131 133 134 135 137 137 133 131 139 145 140 134 127 121 115 123 136 135 134 131 132 136 137 135 133 127 121 117 113 115 115 115 117 116 117 114 110 106 105 106 106 107 111 115 117 115 112 110 111 112 113 112 109 106 103 98 94 93 90 87 86 88 89 91 95 101 107 111 112 110 109 107 106 105 103 101
121 121 122 114 106 105 103 104 112 122 134 138 139 140 140 138 136 141 144 140 135 129 122 120 129 133 128 128 126 131 137 136 137 134 126 119 116 117 119 115 116 116 116 118 117 115 110 107 106 106 106 109 114 116 117 115 115 114 114 118 117 113 110 106 99 92 91 91 90 89 89 90 91 92 96 101 104 106 106 105 104 102 100 98 97
129 127 123 111 106 105 99 99 106 119 133 139 141 142 139 140 144 146 144 138 135 130 128 128 128 122 119 122 129 134 135 135 137 134 127 123 124 126 122 116 114 114 116 117 115 112 110 110 110 109 107 109 113 116 120 120 120 121 124 125 121 117 113 105 98 94 92 92 93 93 93 93 93 94 95 98 101 103 105 105 104 102 100 100 99
134 130 122 108 106 108 105 103 110 123 133 136 140 145 144 142 145 150 147 137 133 131 132 131 124 120 122 126 134 137 135 135 135 133 132 132 131 128 122 118 115 113 112 111 112 112 113 113 111 113 111 110 110 113 118 118 117 120 127 125 121 119 110 101 97 94 91 91 94 95 96 95 95 96 96 99 102 104 106 106 105 104 103 102 100
145 131 118 107 105 109 110 106 113 124 134 139 138 143 149 144 142 148 147 139 134 128 129 132 130 128 127 133 138 135 134 136 137 138 140 139 135 128 122 123 122 115 109 108 109 111 116 113 110 113 113 109 103 107 113 113 113 117 122 120 119 116 105 97 93 88 86 91 96 96 98 97 97 98 98 101 104 106 106 105 104 103 103 100 96
168 148 117 113 113 112 108 106 115 122 129 134 135 139 144 140 136 142 143 142 138 134 139 143 141 137 133 141 145 140 138 138 141 145 146 144 137 130 126 126 125 118 112 111 110 112 113 111 113 114 112 107 99 104 111 114 117 119 121 118 116 109 99 94 91 89 90 93 95 97 99 99 99 100 100 103 105 106 104 102 100 99 97 93 90
185 175 128 127 122 115 111 111 118 122 126 129 133 134 135 136 135 139 141 144 149 151 157 155 148 145 148 155 154 149 144 143 147 149 149 147 137 131 128 125 122 120 115 111 110 110 108 107 111 114 112 105 102 106 113 118 121 122 121 117 113 103 93 90 92 96 100 98 99 101 102 102 102 102 103 104 104 102 99 97 96 94 92 90 88
180 172 138 132 125 120 121 121 122 127 132 132 134 135 139 146 141 143 146 157 173 174 172 167 161 163 170 165 163 158 148 149 153 152 153 147 138 134 131 126 123 121 114 109 108 106 102 99 102 111 111 105 103 110 118 122 122 121 119 115 110 101 95 93 95 100 102 103 105 105 105 104 103 103 102 101 100 97 96 95 94 93 91 89 87
161 162 144 133 129 129 130 131 136 138 145 145 148 155 157 163 163 166 165 180 195 190 187 184 180 182 184 170 173 166 149 150 152 152 153 145 138 136 134 130 127 124 117 113 111 105 100 96 99 109 111 105 105 114 122 123 122 119 116 113 105 95 96 96 98 103 104 104 105 104 103 103 102 100 99 98 97 97 97 96 94 91 89 87 85
150 151 141 133 132 132 133 139 153 154 172 184 189 196 190 189 191 194 193 204 209 201 196 196 196 187 178 175 181 167 144 143 148 150 151 142 138 137 137 135 131 127 120 117 117 112 103 98 98 105 109 106 112 121 124 124 122 118 114 109 100 94 97 98 98 104 104 103 104 103 102 101 101 99 98 97 96 95 93 92 90 89 88 86 85
142 143 139 136 135 136 146 159 188 196 209 219 218 222 222 214 209 205 205 211 207 203 201 203 205 183 171 182 186 165 140 140 145 148 151 144 144 143 142 142 137 130 124 121 123 118 108 102 99 100 105 109 120 126 126 125 121 117 114 107 99 97 100 101 99 101 102 103 105 103 101 100 99 97 95 95 93 92 90 88 88 87 87 86 85
137 145 147 138 140 165 203 231 235 232 237 239 237 235 228 217 215 213 212 215 211 209 206 204 198 174 172 183 185 165 143 142 144 146 149 147 147 146 145 147 140 132 130 133 132 123 114 108 104 103 108 116 124 128 127 125 120 116 111 103 101 100 100 102 99 96 96 100 104 102 100 98 93 91 90 91 91 91 90 90 89 88 87 86 85
140 156 168 159 192 219 225 249 257 259 260 252 248 241 227 217 214 215 218 215 214 213 206 203 193 176 177 182 180 168 149 145 145 147 149 146 145 142 143 146 140 133 133 135 133 127 119 111 110 110 115 122 127 130 128 123 118 114 106 102 104 103 102 103 100 97 97 99 101 99 97 92 88 87 88 90 91 91 91 91 90 89 87 86 85
150 171 204 201 202 214 225 245 253 247 267 267 245 233 224 223 216 214 215 207 207 211 205 200 191 182 183 181 174 165 155 147 146 150 150 144 143 142 143 143 137 133 133 134 133 131 124 115 114 116 121 127 131 131 125 120 115 107 102 104 106 105 103 101 100 100 98 96 95 92 90 88 87 89 92 94 93 92 91 90 89 88 87 86 84
178 206 233 239 225 224 232 240 243 217 178 236 239 223 221 225 222 216 210 205 203 204 200 194 186 184 186 180 171 166 161 154 151 152 150 144 140 142 142 138 132 134 137 135 134 131 123 117 116 121 128 132 132 128 122 117 109 101 102 107 108 108 106 104 103 100 95 93 90 88 88 88 90 93 96 97 94 93 92 90 89 88 87 85 81
206 225 237 245 233 224 232 243 244 209 147 187 231 214 209 218 220 215 207 202 199 200 196 185 184 186 185 178 171 170 164 156 155 153 151 147 144 143 139 133 134 140 138 132 130 125 119 116 119 126 132 133 131 126 121 114 104 101 103 107 111 110 107 105 103 97 92 92 89 89 91 92 94 97 97 96 93 92 92 91 90 88 86 81 76
204 209 224 228 221 214 219 240 249 236 149 167 216 205 202 212 216 214 210 204 195 199 188 170 183 186 178 173 168 169 161 154 158 154 149 147 145 145 139 135 140 139 131 127 124 118 116 117 122 129 134 133 130 126 118 111 105 105 108 112 115 109 104 103 98 92 91 89 89 93 95 97 100 100 98 95 93 93 92 93 92 89 83 77 74
177 179 204 216 221 221 215 242 266 261 170 161 198 208 210 215 216 213 216 211 191 191 183 167 178 177 171 170 163 164 159 155 158 151 147 146 145 145 140 138 139 131 125 122 118 116 117 120 126 131 133 132 129 124 116 110 108 109 112 113 111 108 106 101 93 90 92 90 92 97 99 102 103 100 98 96 97 96 95 94 91 87 82 77 73
167 167 196 216 226 241 241 264 281 270 213 163 181 209 218 216 219 218 222 219 184 174 173 163 170 171 168 169 163 163 156 153 153 146 145 147 146 144 139 138 134 125 120 116 115 116 117 124 130 131 132 131 126 119 111 109 112 112 113 110 107 109 106 95 90 90 92 95 96 101 105 107 104 101 100 98 98 98 97 95 89 86 83 77 66
169 168 189 211 220 238 255 281 292 290 274 162 162 193 204 199 212 217 225 225 187 169 153 143 158 168 167 167 164 161 154 150 148 142 143 147 147 140 135 134 128 121 114 113 115 114 116 125 130 130 131 126 118 111 108 112 115 113 112 109 106 106 101 89 86 92 97 101 104 108 110 108 104 102 103 101 99 98 97 94 90 85 78 68 59
171 173 188 199 204 228 259 314 307 309 321 182 148 165 185 195 204 200 210 211 191 175 142 138 159 168 163 165 161 156 153 150 147 145 144 144 140 134 133 131 125 120 118 121 121 116 121 126 129 131 126 116 111 107 108 115 115 110 107 110 110 105 97 88 90 100 104 106 110 114 114 108 105 103 104 103 100 98 94 90 86 78 68 58 49
173 174 183 189 194 211 256 332 328 328 117 125 131 142 163 176 182 177 186 191 183 173 149 143 159 163 159 160 156 152 152 150 149 148 144 140 137 135 134 131 127 124 124 128 127 124 126 128 131 132 123 118 116 109 105 111 113 110 109 107 107 101 93 92 95 101 105 110 117 119 114 108 105 105 104 105 103 100 95 89 81 69 58 46 38
174 171 176 184 185 175 181 241 332 187 122 97 97 106 135 148 155 160 163 171 171 166 155 147 152 157 158 156 152 150 149 150 150 147 143 140 138 135 133 133 131 128 128 131 130 128 129 131 135 132 127 124 121 115 115 114 108 108 111 100 99 103 100 99 97 103 111 114 122 121 114 110 107 108 108 108 106 101 96 87 74 56 44 35 28
172 169 171 176 178 172 170 157 60 108 104 92 92 94 102 121 137 149 151 161 167 165 155 146 150 157 157 153 150 149 148 150 150 147 145 142 140 137 136 137 133 132 133 133 134 133 133 137 139 134 131 125 118 122 123 116 108 100 94 90 97 101 97 101 104 114 120 119 125 122 115 113 110 113 115 113 110 104 96 80 61 42 32 25 21
172 167 166 168 176 177 165 143 122 103 106 104 108 107 103 108 125 138 147 158 161 160 148 143 151 153 154 158 153 147 146 148 147 145 145 142 141 139 139 138 136 137 134 134 136 138 139 141 141 137 133 125 119 129 124 115 121 108 83 86 97 101 102 107 114 119 118 120 126 123 117 117 117 122 124 120 118 108 89 65 46 31 23 19 16
167 164 163 166 169 169 159 144 137 117 114 115 115 112 107 112 123 129 139 145 145 149 142 140 146 147 152 160 149 137 138 141 141 143 144 142 141 140 141 140 139 138 135 138 139 140 143 144 142 138 134 121 118 131 121 110 119 97 80 95 99 104 108 105 112 122 117 119 126 124 122 123 127 132 133 135 127 101 72 45 28 21 15 16 14
161 163 161 164 165 160 149 145 137 123 122 118 111 110 109 113 119 123 131 135 136 142 135 130 135 138 143 143 132 128 134 139 140 142 141 140 141 142 145 142 139 138 138 140 138 140 143 142 140 137 132 119 121 129 117 108 114 96 66 93 105 108 115 120 130 128 118 122 128 128 130 132 138 143 146 149 129 78 47 25 16 14 10 11 11
159 163 161 161 162 153 143 141 132 122 125 122 115 112 110 111 116 124 131 132 132 133 130 132 132 132 131 127 127 133 136 139 140 140 139 141 143 145 147 142 139 140 140 140 141 145 144 142 140 138 133 121 126 129 115 110 113 113 105 84 115 114 110 125 138 138 131 131 132 137 141 142 149 155 159 154 123 58 24 11 8 8 7 8 7
161 162 159 158 160 151 140 139 136 128 130 130 125 119 116 115 119 126 132 130 128 128 131 136 138 137 137 134 136 138 137 139 139 139 141 143 146 148 145 140 140 141 142 143 145 147 145 143 140 140 135 124 133 137 128 136 121 121 138 117 120 116 111 129 139 146 145 137 144 153 155 155 162 169 167 157 128 25 6 2 3 2 4 4 4
163 161 159 157 157 149 139 137 137 135 136 136 132 125 122 122 124 129 133 132 130 133 138 140 143 143 142 140 139 138 139 140 140 142 144 145 148 148 143 139 142 146 146 148 147 146 148 148 146 144 138 131 140 141 136 137 128 128 136 137 136 130 139 146 138 148 147 149 166 172 171 167 165 174 185 172 157 50 1 355 359 357 359 1 1
165 163 160 155 152 145 137 136 137 140 141 141 139 132 129 129 130 131 133 134 134 139 142 142 143 143 141 141 140 139 142 143 144 148 149 148 148 143 140 140 146 150 148 151 150 149 152 151 148 145 142 140 134 136 149 131 117 119 118 134 145 141 148 138 137 168 175 175 181 189 192 176 162 179 205 199 177 139 11 358 356 354 355 356 358
167 165 160 152 149 142 136 135 137 146 147 145 144 138 135 134 133 134 134 135 135 139 142 141 141 141 142 143 144 143 146 148 149 155 154 152 150 140 139 144 149 152 152 155 154 152 157 152 149 148 149 146 130 138 160 120 91 85 96 134 151 152 151 133 147 177 193 198 182 202 216 202 195 201 235 273 304 6 356 351 348 350 350 351 356
171 167 160 153 148 140 137 137 141 152 153 151 148 144 141 136 135 137 137 137 138 141 142 143 143 146 149 148 149 150 152 155 156 160 159 157 154 141 140 149 152 154 155 158 157 156 158 153 153 154 156 154 141 152 158 128 110 105 108 177 149 151 154 144 157 159 160 190 184 216 228 234 243 234 262 292 324 334 328 335 334 341 342 343 351
179 172 161 154 149 142 140 141 148 156 158 156 150 148 144 140 141 141 141 142 144 146 147 149 152 154 159 156 155 157 158 162 161 161 160 158 151 139 142 151 154 156 157 159 161 161 157 152 156 159 158 156 150 160 163 148 142 149 183 182 132 140 163 170 171 141 123 175 187 218 253 278 280 282 286 300 325 330 326 334 335 341 341 335 342
185 178 165 160 153 146 143 144 152 159 162 161 155 152 148 144 145 144 145 146 149 152 152 155 159 162 164 160 158 159 160 162 162 162 159 157 149 144 149 155 157 159 160 163 164 162 160 157 160 163 161 155 154 164 173 166 154 162 172 158 138 142 162 188 179 165 191 244 259 158 228 274 293 299 298 305 327 330 320 322 328 336 338 333 341
188 183 171 165 157 149 147 146 154 161 164 165 159 155 152 148 148 147 148 151 154 155 156 160 165 168 167 164 161 159 161 161 161 163 159 157 155 153 156 159 163 164 162 166 166 163 162 161 162 166 164 156 155 161 180 182 165 186 183 148 164 149 154 188 174 187 271 272 277 262 218 249 283 302 307 310 330 331 316 315 317 324 335 332 338
192 187 176 169 163 154 151 150 158 165 166 167 165 161 159 156 152 151 151 154 158 158 161 168 168 170 170 166 163 161 161 160 161 164 161 160 159 158 161 164 167 167 165 165 166 166 164 164 167 169 167 162 161 159 176 184 162 215 235 175 208 221 190 192 135 203 231 232 265 281 279 261 264 283 298 306 317 323 312 310 310 324 339 329 327
197 192 182 174 171 163 158 158 161 167 169 169 169 168 168 166 162 161 159 160 166 167 170 174 173 173 172 168 164 163 162 162 164 165 164 164 161 161 163 166 168 167 167 165 166 170 167 169 173 174 173 163 163 163 172 185 172 200 221 171 189 240 245 233 153 215 213 214 240 260 289 295 247 255 273 289 304 320 315 306 314 324 327 317 321
200 197 192 182 179 174 167 165 165 170 173 174 174 173 175 174 172 171 168 166 171 177 177 178 179 176 173 172 170 168 167 168 171 169 168 168 164 163 164 167 169 167 168 167 168 172 170 174 175 179 186 168 158 169 173 191 192 193 199 177 177 220 257 279 245 246 227 247 274 253 265 273 246 257 265 275 295 313 299 296 314 317 310 315 323
204 202 199 191 187 183 178 174 171 171 175 179 180 180 180 179 178 176 174 173 176 181 179 179 185 181 176 179 177 175 175 175 177 175 174 173 168 166 165 167 170 169 170 171 172 175 173 179 180 182 196 190 175 174 168 178 199 197 199 200 189 196 232 234 212 242 223 211 271 253 242 244 230 258 271 275 270 269 273 291 313 313 310 319 318
207 205 203 198 195 192 188 184 179 176 174 178 184 186 187 185 181 180 180 180 181 184 181 180 186 186 181 182 182 181 180 179 182 180 177 177 173 169 166 166 171 173 175 176 175 177 180 185 188 188 193 199 201 185 167 165 181 191 200 217 214 201 231 234 212 246 231 196 221 243 242 243 220 235 263 275 255 253 272 299 309 304 310 319 316
207 206 206 200 199 200 196 190 187 183 174 171 179 182 185 187 184 183 184 183 186 187 183 182 186 188 185 184 186 185 183 183 183 183 181 180 178 174 168 167 174 178 179 180 178 183 191 190 192 196 195 198 206 205 195 173 166 186 207 215 218 210 233 242 226 259 261 226 230 252 259 261 247 226 235 259 251 249 278 296 291 293 312 329 330
208 207 208 203 199 202 200 196 193 187 178 170 170 174 177 182 183 183 184 185 187 187 187 187 187 188 188 187 189 187 186 185 183 184 185 183 181 178 173 172 177 182 182 185 188 194 199 195 196 202 205 209 210 213 224 208 172 187 216 221 225 222 225 235 233 244 260 257 261 272 272 271 268 246 229 255 261 256 288 296 291 298 316 331 339
206 207 208 206 201 202 202 199 196 189 183 174 168 172 174 176 181 181 185 189 188 187 189 191 189 189 192 191 190 188 185 185 182 184 186 185 184 181 179 179 181 185 188 191 196 202 204 202 206 210 213 219 219 217 226 232 215 207 216 224 235 242 245 257 259 251 255 265 274 279 278 279 278 267 256 273 276 276 300 302 305 314 316 324 338
202 207 209 209 204 203 204 199 198 192 187 184 176 177 177 176 182 182 186 191 190 189 192 195 193 192 194 194 191 188 185 184 182 183 185 184 186 185 184 186 186 190 195 197 201 206 209 211 214 219 224 227 228 225 225 231 235 236 233 232 243 254 263 274 275 273 281 286 283 283 281 276 278 280 283 289 286 291 306 304 309 316 313 317 335
199 207 208 210 205 205 207 201 199 194 190 191 185 184 185 182 186 187 189 193 194 195 196 198 198 195 196 196 194 191 186 182 179 180 183 185 188 190 190 193 195 197 200 203 208 213 216 220 221 225 231 232 233 234 234 236 239 243 241 242 250 253 261 276 282 282 294 301 291 288 285 280 282 292 301 307 302 309 318 301 304 310 315 328 345
Height
3180 3181 3181 3183 3184 3185 3186 3186 3187 3188 3188 3189 3190 3190 3191 3191 3192 3193 3194 3194 3194 3195 3195 3196 3197 3198 3199 3199 3199 3199 3200 3198 3198 3199 3199 3200 3200 3200 3199 3199 3199 3199 3199 3200 3200 3200 3201 3201 3201 3201 3201 3202 3202 3202 3202 3203 3203 3203 3203 3203 3203 3203 3203 3204 3204 3204 3204 3204 3203 3204 3204 3203 3203 3203 3203 3203 3203 3203 3203 3203 3204 3204 3205 3205 3205
3180 3181 3181 3182 3184 3185 3186 3187 3188 3189 3190 3190 3191 3192 3192 3193 3193 3194 3194 3195 3195 3195 3196 3197 3197 3198 3198 3198 3198 3199 3200 3198 3198 3200 3200 3200 3201 3201 3200 3200 3199 3200 3201 3201 3201 3202 3202 3202 3202 3202 3203 3203 3203 3203 3204 3204 3204 3204 3205 3204 3204 3204 3204 3204 3204 3204 3204 3204 3204 3204 3204 3204 3204 3204 3204 3204 3204 3204 3204 3205 3205 3205 3205 3206 3206
3180 3181 3181 3183 3184 3186 3186 3188 3189 3190 3191 3192 3192 3193 3193 3194 3194 3194 3195 3195 3195 3196 3196 3197 3197 3198 3198 3198 3198 3200 3199 3198 3199 3200 3200 3201 3201 3202 3201 3200 3201 3202 3202 3202 3202 3202 3203 3203 3203 3204 3204 3204 3204 3205 3205 3205 3205 3206 3206 3206 3205 3205 3205 3205 3205 3205 3205 3205 3205 3205 3205 3205 3205 3204 3205 3205 3205 3205 3206 3206 3206 3206 3206 3207 3207
3182 3183 3183 3184 3185 3187 3187 3188 3190 3191 3192 3192 3193 3193 3194 3194 3195 3195 3195 3195 3195 3196 3196 3197 3197 3198 3198 3198 3199 3200 3199 3199 3201 3201 3200 3201 3202 3202 3202 3202 3203 3203 3203 3203 3203 3203 3204 3204 3204 3205 3205 3206 3206 3206 3206 3206 3206 3206 3207 3206 3206 3206 3206 3206 3206 3206 3206 3206 3206 3206 3206 3206 3206 3206 3206 3206 3206 3206 3207 3207 3207 3208 3208 3208 3208
3183 3184 3185 3186 3187 3188 3188 3189 3190 3191 3192 3193 3193 3194 3194 3195 3195 3195 3196 3196 3196 3197 3197 3197 3198 3198 3199 3199 3201 3200 3200 3201 3202 3203 3202 3203 3203 3202 3203 3204 3204 3204 3204 3204 3205 3205 3205 3205 3205 3206 3206 3207 3207 3207 3207 3207 3207 3207 3207 3207 3207 3207 3207 3207 3207 3207 3207 3207 3207 3207 3207 3207 3207 3207 3207 3207 3207 3208 3208 3208 3209 3209 3209 3209 3209
3185 3186 3186 3188 3188 3189 3189 3190 3191 3192 3193 3193 3194 3194 3195 3195 3195 3196 3196 3196 3197 3197 3198 3198 3199 3200 3200 3200 3201 3200 3201 3202 3203 3203 3204 3204 3204 3204 3204 3205 3205 3205 3205 3206 3206 3206 3206 3206 3206 3207 3207 3208 3208 3209 3208 3208 3208 3208 3208 3208 3208 3208 3208 3208 3208 3208 3209 3209 3209 3210 3209 3209 3209 3209 3209 3209 3209 3209 3209 3210 3210 3210 3211 3211 3211
3186 3187 3188 3189 3189 3190 3190 3191 3191 3192 3193 3194 3194 3194 3195 3195 3195 3196 3196 3197 3197 3198 3199 3199 3201 3201 3200 3200 3200 3201 3201 3203 3203 3204 3205 3204 3204 3205 3206 3206 3206 3206 3206 3207 3207 3207 3207 3207 3208 3208 3208 3208 3209 3209 3210 3209 3209 3209 3209 3209 3210 3210 3210 3210 3209 3210 3211 3211 3212 3212 3211 3211 3211 3211 3210 3211 3210 3211 3211 3211 3211 3212 3212 3212 3212
3187 3188 3189 3190 3191 3191 3191 3191 3192 3193 3194 3194 3194 3195 3195 3195 3196 3196 3197 3197 3198 3198 3199 3200 3201 3201 3200 3200 3201 3202 3202 3203 3204 3205 3206 3206 3206 3207 3207 3207 3207 3208 3208 3208 3208 3208 3208 3209 3209 3209 3209 3209 3209 3210 3210 3211 3211 3211 3211 3211 3211 3211 3211 3211 3211 3212 3212 3213 3214 3213 3213 3212 3212 3212 3212 3212 3212 3212 3212 3212 3212 3213 3213 3214 3214
3187 3189 3190 3191 3192 3192 3192 3192 3193 3194 3194 3194 3195 3195 3195 3196 3196 3197 3197 3198 3199 3199 3200 3201 3202 3201 3201 3201 3203 3203 3203 3204 3205 3206 3207 3207 3208 3208 3208 3208 3208 3209 3209 3209 3209 3209 3209 3210 3210 3210 3210 3210 3210 3210 3211 3211 3211 3212 3212 3213 3212 3213 3213 3213 3213 3213 3213 3214 3215 3214 3214 3214 3214 3214 3214 3214 3214 3214 3214 3214 3214 3214 3215 3215 3216
3187 3189 3190 3192 3192 3192 3192 3193 3193 3194 3194 3194 3195 3195 3195 3196 3196 3197 3198 3198 3199 3200 3201 3202 3202 3202 3202 3202 3203 3204 3204 3205 3207 3207 3208 3208 3208 3208 3209 3209 3209 3210 3210 3210 3210 3210 3210 3211 3211 3211 3211 3211 3211 3211 3212 3212 3212 3213 3213 3213 3214 3214 3214 3214 3214 3214 3214 3215 3216 3216 3216 3216 3215 3215 3215 3215 3215 3215 3215 3215 3215 3216 3216 3217 3217
3189 3189 3190 3191 3191 3191 3192 3193 3193 3194 3194 3194 3195 3195 3195 3196 3197 3197 3198 3199 3199 3200 3201 3202 3203 3203 3203 3203 3203 3203 3204 3206 3207 3208 3208 3207 3208 3208 3209 3210 3210 3211 3211 3211 3211 3211 3212 3212 3212 3212 3212 3212 3212 3213 3213 3213 3213 3214 3215 3215 3215 3215 3216 3216 3216 3216 3217 3217 3217 3217 3217 3217 3217 3217 3217 3217 3217 3217 3217 3217 3217 3217 3218 3218 3218
3190 3190 3191 3191 3191 3192 3192 3193 3193 3194 3194 3195 3196 3196 3196 3197 3197 3198 3199 3199 3200 3200 3201 3202 3203 3204 3204 3204 3204 3204 3204 3205 3207 3207 3207 3207 3207 3208 3209 3210 3211 3212 3212 3212 3212 3213 3213 3213 3213 3213 3213 3213 3213 3214 3214 3215 3215 3216 3216 3217 3217 3217 3217 3217 3217 3218 3219 3218 3218 3218 3219 3218 3218 3218 3218 3218 3218 3218 3218 3218 3218 3218 3219 3219 3219
3191 3191 3192 3192 3192 3192 3192 3193 3194 3194 3195 3195 3196 3196 3196 3197 3197 3198 3199 3199 3199 3200 3201 3202 3203 3204 3205 3205 3206 3205 3204 3204 3206 3207 3207 3208 3208 3209 3210 3211 3211 3212 3213 3213 3213 3214 3214 3214 3214 3214 3214 3214 3215 3215 3216 3216 3217 3217 3218 3218 3218 3219 3219 3219 3219 3219 3220 3220 3220 3220 3220 3220 3219 3219 3219 3219 3219 3219 3219 3219 3219 3219 3220 3220 3221
3192 3192 3192 3193 3193 3193 3193 3194 3194 3195 3195 3195 3196 3197 3197 3197 3198 3199 3199 3199 3199 3200 3201 3202 3203 3205 3206 3205 3206 3206 3205 3205 3207 3208 3208 3209 3210 3210 3211 3212 3213 3213 3213 3214 3214 3214 3215 3215 3215 3215 3215 3216 3216 3216 3217 3218 3218 3219 3219 3220 3220 3220 3220 3220 3220 3221 3221 3221 3221 3221 3221 3221 3221 3221 3221 3221 3221 3220 3220 3220 3221 3221 3221 3222 3222
3192 3192 3192 3193 3193 3193 3194 3194 3195 3195 3195 3195 3196 3196 3197 3197 3198 3198 3199 3199 3200 3200 3201 3202 3204 3205 3206 3205 3206 3207 3206 3206 3208 3209 3209 3210 3211 3211 3212 3213 3214 3214 3214 3214 3215 3215 3215 3216 3216 3216 3216 3217 3218 3218 3218 3219 3220 3221 3221 3221 3221 3222 3222 3221 3222 3222 3222 3223 3223 3222 3222 3222 3222 3222 3222 3222 3222 3222 3222 3222 3222 3223 3223 3223 3223
3193 3193 3193 3193 3193 3194 3194 3194 3195 3195 3195 3195 3196 3196 3196 3197 3198 3198 3198 3199 3200 3200 3201 3202 3204 3205 3205 3205 3206 3206 3205 3207 3208 3209 3210 3210 3211 3212 3213 3214 3215 3215 3215 3215 3215 3216 3216 3217 3217 3217 3218 3218 3219 3220 3220 3221 3222 3222 3222 3223 3223 3223 3223 3223 3223 3224 3224 3224 3224 3224 3224 3224 3223 3223 3223 3223 3223 3224 3224 3224 3224 3224 3224 3224 3224
3193 3193 3194 3194 3194 3194 3194 3194 3194 3195 3195 3195 3196 3195 3196 3197 3197 3197 3198 3198 3199 3200 3201 3202 3204 3204 3205 3205 3206 3207 3206 3208 3209 3209 3210 3211 3212 3212 3213 3215 3216 3216 3215 3216 3216 3217 3217 3218 3218 3218 3219 3220 3220 3221 3222 3223 3224 3224 3224 3224 3224 3224 3225 3225 3225 3225 3225 3225 3225 3225 3225 3225 3225 3225 3225 3225 3225 3225 3225 3225 3225 3226 3226 3226 3226
3194 3194 3194 3194 3194 3194 3194 3194 3194 3195 3195 3196 3196 3195 3196 3196 3196 3196 3197 3197 3198 3199 3200 3202 3203 3204 3205 3205 3207 3207 3208 3209 3210 3210 3211 3211 3212 3213 3214 3215 3216 3216 3216 3216 3217 3217 3218 3218 3219 3219 3220 3221 3222 3223 3224 3225 3225 3225 3225 3225 3225 3225 3226 3226 3226 3226 3227 3227 3227 3227 3226 3226 3226 3226 3227 3227 3227 3226 3227 3227 3227 3227 3227 3228 3228
3195 3194 3194 3194 3194 3194 3194 3195 3195 3195 3196 3196 3195 3195 3195 3195 3195 3195 3196 3197 3197 3198 3200 3201 3202 3203 3204 3205 3208 3208 3208 3210 3210 3210 3211 3211 3213 3213 3214 3215 3216 3216 3217 3217 3218 3218 3219 3219 3220 3220 3221 3222 3223 3225 3225 3226 3226 3226 3226 3227 3227 3227 3227 3228 3228 3228 3228 3228 3228 3228 3228 3227 3228 3228 3228 3228 3228 3228 3228 3228 3228 3229 3229 3229 3229
3195 3195 3194 3194 3193 3193 3194 3195 3195 3196 3197 3196 3195 3195 3194 3194 3194 3194 3195 3196 3197 3198 3199 3200 3201 3203 3203 3205 3209 3208 3208 3210 3211 3211 3211 3212 3213 3214 3215 3216 3216 3217 3217 3218 3219 3219 3220 3220 3221 3222 3223 3224 3225 3226 3227 3227 3228 3228 3228 3228 3228 3228 3229 3229 3229 3229 3230 3229 3229 3229 3229 3229 3229 3229 3229 3229 3229 3229 3229 3230 3230 3230 3231 3231 3231
3195 3195 3194 3193 3193 3193 3194 3194 3195 3196 3197 3196 3195 3195 3195 3194 3194 3194 3194 3195 3197 3197 3197 3200 3201 3202 3203 3205 3208 3208 3208 3210 3211 3212 3212 3212 3213 3214 3215 3216 3217 3217 3218 3219 3220 3221 3221 3221 3222 3223 3224 3225 3226 3227 3228 3229 3229 3229 3229 3229 3230 3230 3230 3230 3231 3231 3231 3231 3231 3231 3230 3230 3230 3230 3230 3230 3230 3230 3231 3231 3231 3232 3232 3232 3232
3195 3195 3194 3193 3193 3194 3194 3194 3194 3195 3196 3196 3195 3195 3194 3193 3193 3193 3194 3195 3196 3196 3197 3201 3201 3202 3203 3206 3208 3207 3208 3210 3211 3213 3213 3214 3214 3215 3216 3217 3218 3218 3219 3220 3221 3222 3222 3222 3223 3224 3226 3227 3228 3228 3229 3230 3230 3230 3230 3231 3231 3231 3231 3232 3232 3232 3232 3232 3232 3232 3232 3232 3232 3232 3232 3232 3232 3232 3232 3232 3233 3233 3234 3234 3234
3195 3195 3194 3193 3193 3194 3194 3194 3194 3194 3195 3196 3194 3194 3193 3193 3192 3192 3193 3194 3196 3197 3199 3202 3202 3202 3204 3206 3207 3207 3208 3210 3211 3213 3214 3215 3215 3216 3217 3218 3219 3219 3220 3221 3222 3222 3222 3223 3224 3226 3227 3228 3229 3229 3230 3231 3231 3231 3231 3232 3232 3232 3233 3233 3233 3233 3233 3233 3233 3233 3233 3233 3233 3233 3233 3233 3233 3233 3234 3234 3234 3234 3235 3235 3235
3195 3195 3194 3194 3194 3194 3194 3194 3194 3193 3194 3195 3194 3193 3193 3193 3192 3192 3192 3192 3195 3197 3200 3202 3201 3203 3204 3205 3207 3207 3208 3210 3211 3212 3213 3215 3216 3217 3218 3219 3220 3221 3221 3222 3223 3223 3224 3224 3225 3227 3228 3229 3230 3230 3231 3232 3232 3232 3232 3233 3233 3233 3234 3234 3235 3235 3234 3234 3234 3234 3234 3234 3234 3234 3235 3235 3235 3235 3235 3235 3236 3236 3236 3236 3236
3195 3195 3194 3194 3195 3194 3194 3194 3194 3193 3193 3195 3195 3194 3194 3194 3193 3192 3192 3191 3194 3197 3200 3203 3202 3202 3204 3205 3207 3208 3209 3210 3211 3212 3214 3216 3217 3218 3219 3220 3221 3221 3222 3223 3224 3224 3225 3226 3227 3228 3229 3230 3230 3231 3232 3233 3233 3234 3234 3234 3235 3235 3235 3235 3236 3236 3235 3235 3235 3235 3235 3236 3236 3236 3236 3236 3236 3236 3237 3237 3237 3237 3237 3237 3236
3196 3196 3195 3195 3195 3195 3194 3194 3194 3194 3194 3194 3195 3195 3194 3194 3193 3193 3193 3193 3194 3195 3200 3204 3203 3203 3204 3205 3207 3208 3209 3211 3212 3214 3215 3217 3218 3219 3220 3221 3222 3222 3223 3224 3225 3225 3226 3227 3228 3229 3230 3231 3232 3233 3234 3234 3235 3235 3235 3236 3236 3236 3236 3236 3237 3237 3237 3236 3236 3236 3237 3237 3237 3237 3237 3237 3238 3238 3238 3238 3238 3238 3238 3237 3237
3196 3196 3196 3195 3195 3195 3195 3195 3194 3194 3194 3193 3194 3195 3195 3195 3194 3194 3194 3194 3195 3195 3199 3203 3203 3203 3205 3205 3206 3208 3210 3212 3214 3215 3217 3218 3219 3220 3221 3222 3223 3223 3224 3225 3226 3226 3227 3229 3230 3231 3231 3232 3234 3234 3235 3235 3236 3236 3237 3237 3237 3237 3237 3237 3238 3237 3237 3237 3237 3238 3238 3238 3238 3239 3239 3239 3239 3239 3239 3238 3238 3238 3238 3238 3238
3196 3196 3196 3196 3196 3196 3196 3195 3195 3195 3194 3194 3193 3194 3195 3195 3195 3195 3195 3195 3195 3195 3199 3203 3202 3204 3205 3206 3206 3208 3211 3213 3215 3216 3217 3218 3219 3221 3222 3222 3223 3224 3225 3226 3226 3227 3228 3230 3231 3232 3232 3233 3235 3235 3236 3237 3237 3237 3238 3238 3238 3238 3238 3238 3239 3238 3239 3238 3239 3239 3239 3239 3240 3240 3240 3240 3240 3239 3239 3239 3239 3239 3239 3238 3238
3196 3197 3197 3197 3197 3197 3197 3196 3196 3195 3195 3194 3194 3194 3194 3194 3195 3195 3195 3196 3196 3196 3200 3203 3202 3204 3206 3206 3207 3208 3211 3213 3215 3217 3218 3219 3220 3221 3222 3223 3224 3225 3226 3227 3227 3228 3230 3231 3232 3233 3233 3234 3235 3237 3237 3237 3238 3239 3239 3239 3239 3239 3239 3239 3239 3239 3239 3239 3240 3240 3240 3240 3241 3241 3241 3241 3240 3240 3240 3240 3240 3239 3239 3239 3238
3197 3197 3198 3198 3198 3197 3197 3197 3197 3196 3196 3195 3195 3195 3195 3194 3195 3195 3195 3196 3197 3198 3201 3203 3204 3204 3206 3207 3207 3208 3211 3214 3216 3218 3219 3220 3221 3222 3223 3224 3225 3226 3227 3227 3228 3229 3230 3232 3233 3233 3235 3235 3236 3237 3238 3238 3239 3240 3240 3240 3240 3240 3240 3240 3240 3240 3240 3240 3241 3241 3241 3242 3242 3242 3242 3242 3241 3241 3241 3240 3240 3240 3239 3239 3239
3197 3198 3198 3198 3198 3198 3198 3198 3198 3197 3197 3197 3196 3196 3196 3196 3195 3196 3196 3197 3198 3198 3199 3202 3204 3206 3208 3209 3206 3205 3210 3214 3216 3218 3220 3221 3222 3223 3223 3224 3225 3226 3227 3228 3229 3230 3231 3232 3233 3234 3235 3236 3237 3238 3238 3240 3241 3241 3241 3241 3241 3241 3241 3241 3241 3241 3241 3241 3242 3242 3242 3243 3243 3243 3243 3242 3242 3242 3242 3241 3241 3240 3240 3239 3239
3198 3198 3199 3199 3199 3199 3198 3198 3199 3198 3198 3198 3198 3198 3198 3198 3197 3197 3198 3198 3199 3199 3198 3200 3203 3205 3208 3207 3205 3207 3211 3215 3217 3219 3220 3221 3222 3223 3224 3225 3226 3227 3228 3229 3230 3231 3232 3233 3234 3235 3236 3237 3238 3239 3239 3241 3242 3242 3242 3242 3242 3242 3242 3242 3243 3243 3242 3242 3243 3243 3243 3243 3243 3243 3243 3243 3243 3243 3242 3242 3241 3241 3240 3240 3239
3198 3198 3199 3199 3199 3199 3199 3199 3199 3199 3199 3199 3199 3199 3200 3199 3199 3199 3200 3200 3200 3200 3201 3202 3204 3205 3207 3207 3209 3211 3214 3216 3218 3219 3220 3222 3222 3223 3224 3225 3226 3227 3228 3229 3231 3232 3233 3234 3235 3236 3237 3237 3239 3239 3240 3242 3242 3243 3243 3242 3242 3242 3243 3243 3244 3244 3243 3243 3244 3244 3244 3244 3244 3244 3244 3244 3244 3244 3243 3242 3242 3241 3241 3240 3239
3198 3199 3199 3199 3200 3200 3199 3199 3200 3200 3200 3200 3200 3201 3201 3201 3201 3201 3202 3202 3202 3203 3204 3205 3206 3208 3209 3210 3212 3214 3215 3217 3218 3220 3221 3222 3223 3223 3224 3225 3227 3228 3229 3230 3231 3232 3233 3234 3235 3236 3237 3238 3239 3240 3241 3243 3243 3243 3244 3243 3243 3243 3244 3244 3244 3244 3244 3244 3244 3244 3244 3244 3244 3245 3245 3245 3245 3244 3244 3243 3243 3242 3241 3240 3240
3199 3199 3199 3200 3200 3200 3200 3200 3200 3201 3201 3201 3201 3202 3202 3202 3203 3203 3204 3204 3205 3206 3207 3208 3209 3210 3212 3213 3214 3215 3217 3218 3219 3220 3221 3222 3223 3224 3224 3226 3227 3228 3230 3231 3231 3233 3234 3235 3235 3236 3237 3239 3240 3241 3241 3242 3243 3243 3243 3243 3243 3244 3244 3244 3245 3245 3245 3244 3245 3244 3243 3243 3244 3245 3245 3245 3245 3245 3245 3244 3243 3243 3242 3241 3240
3199 3199 3199 3200 3200 3200 3200 3201 3201 3201 3202 3202 3202 3203 3203 3203 3204 3205 3205 3206 3206 3208 3209 3210 3211 3212 3213 3214 3215 3216 3217 3218 3219 3220 3221 3222 3223 3224 3225 3226 3228 3229 3230 3231 3232 3233 3234 3235 3236 3236 3238 3238 3239 3241 3242 3242 3243 3243 3243 3244 3244 3244 3244 3245 3245 3246 3245 3245 3245 3244 3244 3244 3243 3244 3244 3245 3245 3245 3245 3244 3244 3243 3242 3241 3240
3199 3199 3200 3200 3200 3201 3201 3201 3201 3202 3202 3203 3203 3204 3204 3205 3205 3206 3207 3207 3208 3209 3210 3211 3212 3213 3214 3215 3216 3217 3218 3219 3220 3220 3221 3222 3222 3224 3225 3227 3228 3229 3230 3231 3232 3234 3235 3236 3236 3238 3239 3239 3239 3242 3243 3243 3244 3244 3244 3244 3244 3245 3245 3245 3246 3246 3246 3246 3246 3245 3245 3246 3244 3245 3245 3246 3247 3246 3244 3244 3244 3243 3242 3241 3239
3199 3199 3200 3200 3201 3201 3201 3202 3202 3203 3203 3204 3204 3205 3205 3206 3206 3207 3208 3209 3210 3211 3212 3212 3213 3214 3215 3216 3217 3217 3218 3219 3220 3221 3221 3222 3222 3223 3226 3227 3228 3230 3231 3232 3233 3234 3235 3236 3237 3238 3239 3240 3240 3242 3242 3243 3246 3246 3246 3245 3245 3245 3246 3246 3246 3246 3246 3246 3247 3246 3246 3246 3246 3247 3247 3246 3247 3246 3244 3244 3243 3242 3241 3240 3239
3199 3200 3200 3200 3201 3201 3202 3202 3203 3203 3204 3204 3205 3206 3206 3207 3208 3208 3209 3210 3211 3212 3213 3213 3214 3215 3216 3216 3217 3218 3219 3220 3221 3221 3222 3223 3224 3225 3226 3228 3229 3230 3232 3233 3234 3235 3236 3237 3238 3239 3240 3241 3241 3242 3242 3243 3245 3246 3246 3245 3245 3245 3246 3246 3246 3246 3246 3246 3247 3247 3247 3247 3246 3247 3247 3246 3246 3245 3244 3244 3243 3241 3240 3240 3238
3199 3200 3200 3201 3201 3202 3202 3203 3203 3204 3204 3205 3206 3207 3207 3208 3209 3209 3210 3211 3212 3213 3214 3214 3215 3216 3217 3217 3218 3219 3220 3220 3221 3222 3223 3224 3225 3226 3227 3229 3230 3231 3232 3233 3234 3235 3236 3237 3239 3240 3240 3241 3242 3242 3243 3243 3244 3245 3245 3245 3245 3245 3246 3246 3246 3247 3246 3247 3247 3247 3247 3247 3246 3246 3245 3245 3244 3243 3243 3243 3242 3240 3239 3239 3238
3199 3200 3200 3201 3202 3202 3202 3203 3203 3204 3205 3205 3206 3207 3208 3209 3209 3210 3211 3212 3213 3214 3214 3215 3216 3217 3217 3218 3219 3219 3220 3221 3222 3223 3224 3225 3226 3227 3228 3229 3230 3231 3233 3234 3235 3236 3237 3238 3239 3240 3241 3241 3242 3243 3243 3244 3244 3245 3245 3245 3245 3245 3246 3246 3246 3246 3247 3247 3247 3247 3248 3248 3247 3245 3245 3244 3244 3243 3242 3241 3241 3239 3238 3238 3236
3199 3200 3200 3201 3202 3202 3203 3203 3204 3204 3205 3206 3207 3208 3209 3209 3210 3211 3212 3213 3213 3214 3215 3216 3217 3217 3218 3219 3219 3220 3221 3222 3223 3223 3224 3226 3227 3228 3229 3230 3231 3232 3233 3234 3235 3236 3237 3238 3239 3240 3240 3241 3242 3242 3243 3243 3244 3245 3245 3246 3246 3246 3246 3246 3246 3247 3248 3249 3249 3248 3248 3248 3248 3247 3245 3244 3243 3244 3242 3241 3240 3238 3237 3236 3236
3198 3199 3200 3201 3202 3202 3203 3203 3204 3205 3205 3206 3207 3208 3209 3210 3211 3211 3212 3213 3214 3215 3216 3216 3217 3218 3219 3219 3220 3221 3222 3222 3223 3224 3225 3226 3227 3228 3229 3230 3231 3232 3233 3234 3235 3236 3237 3238 3239 3240 3240 3241 3241 3242 3243 3243 3244 3245 3245 3246 3247 3247 3246 3246 3247 3248 3248 3249 3249 3249 3249 3248 3249 3248 3246 3245 3243 3242 3241 3240 3239 3238 3236 3236 3236
3198 3199 3200 3201 3202 3202 3203 3203 3204 3205 3206 3206 3207 3208 3209 3210 3211 3212 3212 3213 3214 3215 3216 3217 3218 3218 3219 3220 3221 3221 3222 3223 3224 3225 3226 3227 3228 3228 3229 3230 3232 3232 3233 3235 3236 3237 3237 3238 3238 3239 3240 3240 3240 3242 3243 3243 3244 3244 3244 3245 3247 3248 3247 3247 3247 3248 3248 3249 3250 3250 3250 3249 3249 3248 3246 3246 3243 3241 3240 3239 3239 3238 3237 3236 3235
3198 3199 3200 3201 3201 3202 3203 3203 3204 3205 3206 3207 3207 3208 3209 3210 3211 3212 3213 3214 3215 3216 3217 3218 3218 3219 3220 3220 3221 3222 3223 3224 3225 3226 3226 3227 3228 3229 3230 3231 3232 3233 3234 3235 3236 3236 3237 3238 3238 3239 3239 3240 3240 3241 3241 3243 3243 3243 3244 3245 3246 3247 3247 3246 3247 3248 3247 3249 3249 3249 3248 3247 3248 3248 3246 3246 3244 3242 3241 3239 3239 3238 3236 3236 3235
3197 3198 3199 3200 3201 3202 3203 3204 3204 3205 3206 3207 3208 3209 3209 3210 3211 3212 3213 3214 3215 3216 3217 3218 3219 3219 3220 3221 3222 3222 3223 3224 3225 3226 3227 3227 3228 3229 3230 3231 3232 3233 3234 3235 3236 3237 3237 3238 3238 3239 3239 3240 3240 3240 3241 3241 3242 3243 3244 3245 3245 3246 3246 3245 3246 3246 3245 3246 3246 3246 3245 3244 3245 3244 3244 3244 3242 3241 3241 3240 3239 3236 3235 3235 3234
3197 3198 3199 3200 3201 3202 3203 3203 3204 3205 3206 3207 3208 3209 3210 3210 3212 3212 3214 3214 3215 3216 3217 3218 3218 3219 3220 3221 3222 3222 3223 3224 3225 3226 3226 3227 3228 3229 3230 3231 3232 3233 3234 3235 3236 3236 3237 3237 3238 3239 3239 3240 3241 3241 3241 3240 3241 3243 3244 3244 3244 3244 3245 3244 3244 3244 3244 3244 3244 3244 3244 3244 3243 3241 3241 3240 3239 3239 3240 3239 3238 3235 3234 3235 3234
3196 3197 3198 3199 3200 3201 3202 3203 3204 3205 3206 3207 3208 3209 3209 3210 3211 3212 3213 3214 3215 3215 3216 3217 3218 3219 3220 3221 3222 3222 3223 3224 3225 3226 3226 3227 3228 3229 3230 3231 3232 3233 3234 3235 3236 3236 3236 3237 3238 3239 3240 3240 3240 3241 3241 3241 3241 3242 3242 3243 3243 3243 3243 3243 3243 3243 3243 3244 3244 3244 3243 3243 3242 3241 3240 3239 3238 3238 3238 3238 3237 3235 3234 3234 3233
3196 3197 3198 3198 3199 3200 3201 3202 3204 3205 3206 3206 3207 3208 3209 3210 3211 3212 3213 3213 3214 3215 3216 3217 3218 3219 3219 3220 3221 3222 3223 3224 3225 3226 3226 3227 3228 3229 3230 3231 3232 3233 3234 3235 3236 3236 3237 3238 3238 3239 3239 3240 3240 3241 3241 3241 3241 3240 3241 3242 3243 3243 3243 3243 3242 3242 3241 3242 3243 3243 3243 3241 3242 3241 3240 3240 3238 3237 3236 3236 3235 3234 3233 3233 3232
3196 3196 3197 3197 3199 3200 3201 3202 3203 3204 3205 3206 3207 3208 3209 3210 3211 3212 3212 3213 3214 3215 3216 3217 3217 3218 3219 3220 3221 3222 3223 3224 3225 3226 3226 3227 3228 3229 3230 3231 3232 3233 3234 3235 3235 3236 3237 3238 3238 3239 3239 3239 3240 3240 3240 3241 3241 3241 3241 3242 3242 3243 3243 3242 3242 3241 3240 3242 3242 3242 3242 3241 3241 3241 3239 3240 3238 3235 3235 3234 3232 3233 3233 3232 3231
3195 3195 3196 3196 3198 3199 3200 3201 3202 3203 3205 3206 3207 3208 3209 3210 3210 3211 3212 3213 3214 3215 3215 3216 3217 3218 3219 3220 3221 3222 3223 3224 3225 3226 3226 3227 3228 3229 3230 3231 3232 3233 3233 3234 3235 3236 3236 3237 3237 3238 3238 3239 3239 3240 3240 3240 3240 3240 3241 3241 3242 3242 3242 3242 3242 3241 3240 3241 3241 3241 3241 3239 3239 3238 3237 3238 3237 3234 3234 3233 3232 3232 3231 3230 3229